Pampa, TX

7:07 PM CST on February 27, 2017 (GMT -0600)
Perry Lefors

Weather History for KPPA - December, 2013

Change the Weather History Date:

Thursday, December 5, 2013

  Actual Average Record
Temperature  
Mean Temperature 15 °F -  
Max Temperature 19 °F 55 °F 74 °F (1975)
Min Temperature 11 °F 28 °F 11 °F (1964)
Degree Days  
Heating Degree Days 50    
Moisture  
Dew Point 3 °F    
Average Humidity 59    
Maximum Humidity 82    
Minimum Humidity 43    
Precipitation  
Precipitation 0.00 in - - ()
Sea Level Pressure  
Sea Level Pressure 30.14 in    
Wind  
Wind Speed 15 mph (NNE)    
Max Wind Speed 22 mph    
Max Gust Speed 29 mph    
Visibility 10 miles    
Events Snow    
Averages and records for this station are not official NWS values.
T = Trace of Precipitation, MM = Missing Value Source: NWS Daily Summary

Daily Weather History Graph

Daily Weather History Graph

Search for Another Location

Airport or City:

Trip Planner

Search our weather history database for the weather conditions in past years. The results will help you decide how hot, cold, wet, or windy it might be!

Date:

Astronomy

Dec. 05, 2013 Rise Set
Actual Time 7:38 AM CST 5:30 PM CST
Civil Twilight 7:10 AM CST 5:58 PM CST
Nautical Twilight 6:39 AM CST 6:30 PM CST
Astronomical Twilight 6:08 AM CST 7:01 PM CST
Moon 10:03 AM CST (12/5) 8:50 PM CST (12/5)
Length of Visible Light 10h 48m
Length of Day
9h 51m
Waxing Crescent, 11% of the Moon is Illuminated
Dec 5
Waxing Crescent
Dec 9
First Quarter
Dec 17
Full
Dec 25
Last Quarter
Jan 1
New

Hourly Weather History & Observations

Time (CST) Temp. Windchill Dew Point Humidity Pressure Visibility Wind Dir Wind Speed Gust Speed Precip Events Conditions
12:15 AM 19.4 °F 3.6 °F 4.1 °F 52% 30.06 in 10.0 mi North 19.6 mph 24.2 mph N/A   Scattered Clouds
12:35 AM 19.2 °F 4.7 °F 4.1 °F 52% 30.06 in 10.0 mi North 16.1 mph 26.5 mph N/A   Clear
12:55 AM 18.5 °F 3.3 °F 3.7 °F 53% 30.07 in 10.0 mi North 17.3 mph 27.6 mph N/A   Scattered Clouds
1:15 AM 17.6 °F 2.7 °F 3.2 °F 53% 30.07 in 10.0 mi North 16.1 mph 28.8 mph N/A   Clear
1:35 AM 17.4 °F 1.0 °F 3.2 °F 54% 30.08 in 10.0 mi North 19.6 mph 26.5 mph N/A   Clear
1:55 AM 17.2 °F -0.0 °F 3.4 °F 55% 30.08 in 10.0 mi North 21.9 mph 27.6 mph N/A   Clear
2:15 AM 16.7 °F 0.5 °F 3.9 °F 57% 30.08 in 10.0 mi North 18.4 mph 28.8 mph N/A   Clear
2:35 AM 16.3 °F 0.1 °F 3.4 °F 57% 30.09 in 10.0 mi North 18.4 mph 28.8 mph N/A   Clear
2:55 AM 16.2 °F 1.3 °F 3.4 °F 57% 30.11 in 10.0 mi North 15.0 mph 23.0 mph N/A   Clear
3:15 AM 15.8 °F 1.4 °F 3.7 °F 59% 30.10 in 10.0 mi North 13.8 mph 21.9 mph N/A   Clear
3:35 AM 15.8 °F 0.3 °F 4.3 °F 60% 30.11 in 10.0 mi North 16.1 mph 25.3 mph N/A   Clear
3:55 AM 15.4 °F -1.1 °F 4.6 °F 62% 30.11 in 10.0 mi NNE 18.4 mph 24.2 mph N/A   Clear
4:15 AM 14.9 °F -1.3 °F 4.6 °F 64% 30.12 in 10.0 mi NNE 17.3 mph 23.0 mph N/A   Clear
4:35 AM 14.9 °F -1.8 °F 4.6 °F 64% 30.12 in 10.0 mi NNE 18.4 mph 26.5 mph N/A   Clear
4:55 AM 14.9 °F -0.8 °F 5.2 °F 65% 30.11 in 10.0 mi NNE 16.1 mph 20.7 mph N/A   Clear
5:15 AM 14.9 °F -0.3 °F 5.5 °F 66% 30.12 in 10.0 mi NNE 15.0 mph 21.9 mph N/A   Clear
5:35 AM 14.9 °F -1.3 °F 5.5 °F 66% 30.13 in 10.0 mi NE 17.3 mph 23.0 mph N/A   Clear
5:55 AM 14.7 °F -0.5 °F 5.0 °F 65% 30.13 in 10.0 mi NNE 15.0 mph - N/A   Clear
6:15 AM 14.7 °F -0.5 °F 4.3 °F 63% 30.14 in 10.0 mi NE 15.0 mph - N/A   Clear
6:35 AM 14.5 °F -0.2 °F 4.1 °F 63% 30.14 in 10.0 mi NNE 13.8 mph - N/A   Clear
6:55 AM 14.5 °F -0.7 °F 4.1 °F 63% 30.16 in 10.0 mi NNE 15.0 mph - N/A   Clear
7:15 AM 14.5 °F 0.5 °F 4.3 °F 64% 30.17 in 10.0 mi NNE 12.7 mph - N/A   Clear
7:35 AM 14.4 °F 0.2 °F 4.1 °F 64% 30.17 in 10.0 mi North 12.7 mph 19.6 mph N/A   Clear
7:55 AM 14.0 °F -2.0 °F 3.6 °F 63% 30.16 in 10.0 mi NNE 16.1 mph 20.7 mph N/A   Clear
8:15 AM 14.0 °F -2.5 °F 3.2 °F 62% 30.17 in 10.0 mi NNE 17.3 mph - N/A   Clear
8:35 AM 14.5 °F -0.2 °F 3.2 °F 61% 30.16 in 10.0 mi NNE 13.8 mph 23.0 mph N/A   Clear
9:15 AM 15.3 °F 0.2 °F 2.5 °F 57% 30.18 in 10.0 mi North 15.0 mph 20.7 mph N/A   Scattered Clouds
9:35 AM 15.4 °F -0.1 °F 3.4 °F 59% 30.17 in 10.0 mi North 16.1 mph 21.9 mph N/A   Mostly Cloudy
9:55 AM 16.3 °F 0.5 °F 1.9 °F 53% 30.18 in 10.0 mi North 17.3 mph 24.2 mph N/A   Scattered Clouds
10:15 AM 16.3 °F 1.6 °F 0.7 °F 50% 30.18 in 10.0 mi NNE 15.0 mph 21.9 mph N/A   Clear
10:35 AM 16.2 °F 0.8 °F -0.8 °F 47% 30.18 in 10.0 mi NNE 16.1 mph 21.9 mph N/A   Mostly Cloudy
10:55 AM 16.5 °F 0.8 °F -1.1 °F 46% 30.19 in 10.0 mi NNE 17.3 mph 23.0 mph N/A   Overcast
11:15 AM 16.7 °F 3.2 °F -0.6 °F 47% 30.17 in 10.0 mi NNE 12.7 mph 20.7 mph N/A   Scattered Clouds
11:35 AM 16.9 °F 4.1 °F 0.1 °F 48% 30.19 in 10.0 mi NNE 11.5 mph - N/A   Scattered Clouds
11:55 AM 17.4 °F 4.7 °F 1.0 °F 49% 30.18 in 10.0 mi NNE 11.5 mph - N/A   Mostly Cloudy
12:15 PM 17.6 °F 4.3 °F 0.1 °F 46% 30.16 in 10.0 mi NE 12.7 mph 17.3 mph N/A   Scattered Clouds
12:35 PM 18.1 °F 6.3 °F -0.4 °F 44% 30.17 in 10.0 mi NE 10.4 mph - N/A   Scattered Clouds
12:55 PM 18.1 °F 5.0 °F -0.2 °F 45% 30.14 in 10.0 mi NE 12.7 mph 17.3 mph N/A   Overcast
1:15 PM 17.4 °F 5.4 °F -0.4 °F 46% 30.14 in 10.0 mi NE 10.4 mph 16.1 mph N/A   Overcast
1:35 PM 17.4 °F 7.1 °F -0.4 °F 46% 30.14 in 10.0 mi NE 8.1 mph - N/A   Overcast
1:55 PM 17.6 °F 8.2 °F -0.9 °F 44% 30.13 in 10.0 mi NNE 6.9 mph - N/A   Overcast
2:15 PM 17.4 °F 8.0 °F -1.5 °F 43% 30.12 in 10.0 mi NE 6.9 mph - N/A   Overcast
2:35 PM 17.4 °F 4.7 °F -1.5 °F 43% 30.12 in 10.0 mi NE 11.5 mph - N/A   Overcast
2:55 PM 17.4 °F 7.1 °F -1.8 °F 43% 30.12 in 10.0 mi NE 8.1 mph - N/A   Overcast
3:15 PM 17.1 °F 7.6 °F -1.7 °F 44% 30.12 in 10.0 mi NNE 6.9 mph - N/A   Overcast
3:35 PM 17.1 °F 7.6 °F -1.8 °F 43% 30.12 in 10.0 mi NNE 6.9 mph - N/A   Overcast
3:55 PM 17.1 °F 5.8 °F -1.8 °F 43% 30.11 in 10.0 mi NE 9.2 mph - N/A   Overcast
4:15 PM 17.2 °F 6.0 °F -2.0 °F 43% 30.11 in 10.0 mi NNE 9.2 mph - N/A   Overcast
4:35 PM 17.1 °F 5.0 °F -1.7 °F 44% 30.11 in 10.0 mi NNE 10.4 mph - N/A   Overcast
4:55 PM 16.7 °F 4.5 °F -0.8 °F 46% 30.12 in 10.0 mi NNE 10.4 mph - N/A   Overcast
5:15 PM 16.2 °F 4.7 °F -0.0 °F 49% 30.12 in 10.0 mi NNE 9.2 mph - N/A   Overcast
5:35 PM 15.6 °F 4.0 °F 1.4 °F 54% 30.13 in 10.0 mi NNE 9.2 mph - N/A   Overcast
5:55 PM 15.4 °F 3.0 °F 3.9 °F 60% 30.13 in 10.0 mi NNE 10.4 mph - N/A   Overcast
6:15 PM 14.9 °F 2.3 °F 4.5 °F 63% 30.12 in 10.0 mi North 10.4 mph 16.1 mph N/A   Overcast
6:35 PM 14.9 °F 3.1 °F 4.8 °F 64% 30.14 in 10.0 mi NNE 9.2 mph - N/A   Overcast
6:55 PM 14.7 °F 2.1 °F 5.2 °F 66% 30.13 in 10.0 mi NNE 10.4 mph - N/A   Overcast
7:15 PM 14.5 °F 2.7 °F 5.4 °F 67% 30.13 in 10.0 mi NE 9.2 mph - N/A   Overcast
7:35 PM 14.2 °F 1.4 °F 5.9 °F 70% 30.13 in 7.0 mi NE 10.4 mph - N/A   Overcast
7:55 PM 13.8 °F 1.0 °F 7.5 °F 76% 30.14 in 5.0 mi NE 10.4 mph - N/A Snow Light Snow
8:15 PM 13.5 °F 1.3 °F 7.7 °F 78% 30.14 in 3.0 mi NNE 9.2 mph - N/A Snow Light Snow
8:35 PM 13.1 °F 0.9 °F 8.2 °F 81% 30.16 in 5.0 mi NE 9.2 mph - N/A Snow Light Snow
8:55 PM 13.1 °F 0.1 °F 8.1 °F 80% 30.16 in 7.0 mi NE 10.4 mph - N/A Snow Light Snow
9:15 PM 13.1 °F 1.8 °F 8.1 °F 80% 30.17 in 7.0 mi NNE 8.1 mph - N/A Snow Light Snow
9:35 PM 12.9 °F 0.7 °F 8.2 °F 82% 30.18 in 5.0 mi NNE 9.2 mph - N/A Snow Light Snow
9:55 PM 12.2 °F -1.8 °F 7.3 °F 81% 30.17 in 7.0 mi NE 11.5 mph - N/A Snow Light Snow
10:15 PM 12.0 °F -1.3 °F 7.0 °F 80% 30.17 in 7.0 mi NE 10.4 mph - N/A Snow Light Snow
10:35 PM 12.0 °F -1.3 °F 7.2 °F 81% 30.18 in 10.0 mi NNE 10.4 mph - N/A   Overcast
10:55 PM 12.2 °F 0.7 °F 7.3 °F 81% 30.18 in 10.0 mi NNE 8.1 mph - N/A   Overcast
11:15 PM 12.0 °F -2.7 °F 7.3 °F 81% 30.17 in 10.0 mi NE 12.7 mph - N/A   Overcast
11:35 PM 11.8 °F -0.7 °F 7.3 °F 82% 30.21 in 10.0 mi NNE 9.2 mph - N/A   Overcast
11:55 PM 11.8 °F -1.5 °F 7.3 °F 82% 30.19 in 10.0 mi NNE 10.4 mph - N/A   Overcast